Mount Shasta, CA

1:39 PM PDT on June 26, 2017 (GMT -0700)
Mount Shasta

Weather History for KMHS - June, 2012

Change the Weather History Date:

Saturday, June 9, 2012

  Actual Average Record
Temperature  
Mean Temperature 52 °F 60 °F  
Max Temperature 64 °F 75 °F 94 °F (1955)
Min Temperature 39 °F 45 °F 30 °F (1908)
Degree Days  
Heating Degree Days 13 6  
Month to date heating degree days 87 59  
Since 1 June heating degree days 87 59  
Since 1 July heating degree days 5426 5611  
Cooling Degree Days 0 1  
Month to date cooling degree days 9 9  
Year to date cooling degree days 18 17  
Since 1 June cooling degree days 9 9  
Growing Degree Days 2 (Base 50)    
Moisture  
Dew Point 30 °F    
Average Humidity 47    
Maximum Humidity 62    
Minimum Humidity 27    
Precipitation  
Precipitation 0.00 in 0.05 in 0.87 in (1937)
Month to date precipitation 1.11 0.49  
Year to date precipitation 23.82 25.89  
Sea Level Pressure  
Sea Level Pressure 30.15 in    
Wind  
Wind Speed 7 mph (NNW)    
Max Wind Speed 14 mph    
Max Gust Speed 29 mph    
Visibility 10 miles    
Events      
T = Trace of Precipitation, MM = Missing Value Source: NWS Daily Summary

Daily Weather History Graph

Daily Weather History Graph

Search for Another Location

Airport or City:

Trip Planner

Search our weather history database for the weather conditions in past years. The results will help you decide how hot, cold, wet, or windy it might be!

Date:

Astronomy

Jun. 09, 2012 Rise Set
Actual Time 5:35 AM PDT 8:41 PM PDT
Civil Twilight 5:02 AM PDT 9:15 PM PDT
Nautical Twilight 4:19 AM PDT 9:58 PM PDT
Astronomical Twilight 3:28 AM PDT 10:49 PM PDT
Moon 12:05 AM PDT (6/9) 11:30 AM PDT (6/9)
Length of Visible Light 16h 13m
Length of Day
15h 05m
Waning Gibbous, 67% of the Moon is Illuminated
Jun 9
Waning Gibbous
Jun 11
Last Quarter
Jun 19
New
Jun 26
First Quarter
Jul 3
Full

Hourly Weather History & Observations

Time (PDT) Temp. Windchill Dew Point Humidity Pressure Visibility Wind Dir Wind Speed Gust Speed Precip Events Conditions
12:56 AM 42.1 °F 36.6 °F 27.0 °F 55% 30.04 in 10.0 mi NW 9.2 mph - N/A   Clear
1:56 AM 41.0 °F 36.4 °F 26.1 °F 55% 30.04 in 10.0 mi Variable 6.9 mph - N/A   Clear
2:56 AM 41.0 °F 37.1 °F 26.1 °F 55% 30.06 in 10.0 mi Variable 5.8 mph - N/A   Partly Cloudy
3:56 AM 39.9 °F 35.8 °F 27.0 °F 60% 30.08 in 10.0 mi Variable 5.8 mph - N/A   Partly Cloudy
4:56 AM 39.9 °F 35.8 °F 27.0 °F 60% 30.09 in 10.0 mi Variable 5.8 mph - N/A   Clear
5:56 AM 39.9 °F 34.5 °F 27.0 °F 60% 30.11 in 10.0 mi NNW 8.1 mph - N/A   Clear
6:56 AM 42.1 °F 37.7 °F 30.0 °F 62% 30.13 in 10.0 mi Variable 6.9 mph - N/A   Overcast
7:56 AM 45.0 °F 41.2 °F 30.0 °F 56% 30.14 in 10.0 mi Variable 6.9 mph 16.1 mph N/A   Scattered Clouds
8:56 AM 48.0 °F - 33.1 °F 56% 30.16 in 10.0 mi WNW 9.2 mph 19.6 mph N/A   Clear
9:56 AM 48.0 °F - 30.9 °F 52% 30.17 in 10.0 mi WNW 9.2 mph 20.7 mph N/A   Clear
10:56 AM 53.1 °F - 33.1 °F 47% 30.19 in 10.0 mi Variable 6.9 mph 17.3 mph N/A   Scattered Clouds
11:56 AM 55.9 °F - 33.1 °F 42% 30.18 in 10.0 mi Variable 6.9 mph 17.3 mph N/A   Partly Cloudy
12:56 PM 57.9 °F - 33.1 °F 39% 30.17 in 10.0 mi Variable 4.6 mph - N/A   Clear
1:56 PM 60.1 °F - 32.0 °F 35% 30.15 in 10.0 mi NNW 8.1 mph 18.4 mph N/A   Clear
2:56 PM 62.1 °F - 32.0 °F 32% 30.15 in 10.0 mi NNW 8.1 mph 24.2 mph N/A   Clear
3:56 PM 64.0 °F - 30.9 °F 29% 30.16 in 10.0 mi NNW 9.2 mph 17.3 mph N/A   Clear
4:56 PM 62.1 °F - 28.9 °F 29% 30.16 in 10.0 mi North 8.1 mph 20.7 mph N/A   Clear
5:56 PM 61.0 °F - 30.9 °F 32% 30.18 in 10.0 mi Variable 5.8 mph - N/A   Clear
6:56 PM 59.0 °F - 28.0 °F 31% 30.18 in 10.0 mi North 11.5 mph 18.4 mph N/A   Clear
7:56 PM 57.0 °F - 28.9 °F 34% 30.18 in 10.0 mi Variable 4.6 mph - N/A   Clear
8:56 PM 53.1 °F - 32.0 °F 45% 30.20 in 10.0 mi Variable 6.9 mph - N/A   Clear
9:56 PM 51.1 °F - 30.9 °F 46% 30.23 in 10.0 mi North 8.1 mph 17.3 mph N/A   Clear
10:56 PM 46.9 °F - 33.1 °F 59% 30.24 in 10.0 mi Variable 4.6 mph - N/A   Clear
11:56 PM 46.9 °F - 33.1 °F 59% 30.22 in 10.0 mi North 6.9 mph - N/A   Clear